Showing default

HJS-4B, 58692

Orbit data source: Space-Track

HJS-4B, 58692 is a payload satellite owned by Zhongguo Xingwang (CN) in LEO that was launched on Sat, 30 Dec 2023 UTC via a CHANG ZHENG 2C/YZ-1S launch vehicle from the Jiuquan Satellite Launch Center, China (JSC). Payload-class satellites include a variety of spacecraft equipped with specific instruments for various scientific and technological missions. These include communications satellites like Starlink; space stations such as the ISS; scientific satellites like the Hubble; Earth observation satellites from companies like Planet Labs, Umbra, and HawkEye 360; GPS; miniature CubeSats for education and research; and military/defense satellites.

Loading next visibility...
Identifier
58692, 2023-212B
Orbit
LEO
Country
Flag of CNCN / PRC
Related business
Manufacturer
CAST
Mission
Operational Civil Communications
Bus & Motor
Unknown
Mass
~300 kg wet, ~300 kg dry
Launch date (UTC)
2023-12-30 (2 years ago)
Launch vehicle
CHANG ZHENG 2C/YZ-1S
Launch site
Jiuquan Satellite Launch Center, China (JSC)
Object type
Payload
Rocket body
Debris
Shape & HBR
Box + 2 Pan, 1.3 m
Radar Cross Section
2.320 m², Large (>1 m²)

Expand to show TLE details & history
Last TLE update: 2 days ago

TLE from 2 days ago
0 HJS-4B
1 58692U 23212B   26171.42357279 -.00000101  00000-0  48874-4 0  9994
2 58692  49.9987 332.2457 0001401 119.6620 240.4397 13.41458780121683
Epoch: 2026-06-20T10:09Z
TLE epoch observation values (Epoch: 2026-06-20T10:09:56.689Z)
Latitude
Longitude
-88.87891°
Altitude
1,104.876 km
Speed
7.301 km/s
True Right ascension
22h 08m 58s
True Declination
0° 00' 00"
Sunlit
Object was in daylight at epoch
Visualization orbit readout
Latitude
Unknown
Longitude
Unknown
Altitude
Unknown
Speed
Unknown
Apparent Right ascension
Unknown
Apparent Declination
Unknown
Sunlit
N/A
Visualization observer readout
Local Sidereal Time
23:07:45
Azimuth
Unknown
Elevation
Unknown
Doppler factor
Unknown
Orbital elements
Apogee altitude
1,105.608 km
Perigee altitude
1,103.512 km
Semi-major axis
7,482.697 km
Eccentricity
0.00014
Inclination
49.9987°
RAAN
332.2457°
Arg. of periapsis
119.662°
True anomaly
240.42574°
Mean anomaly
240.4397°
Eccentric anomaly
240.43272°
Mean motion
3.35317 °/min
Orbital period
107.36 mins
BSTAR
0.000048874
Loading maneuver chart data...
Computing Atmospheric mass density...
Loading historical data...
Loading historical data...
Loading historical data...
Loading historical data...
Loading historical data...
Loading historical data...
Loading historical data...
Other satellites on launch #212 in the year 2023 (2023-12-30 UTC)

Documentation

Showing up to 5 results
|